World > North America > United States > Illinois

Stonefort, Illinois Regional Weather

Lat: 37.62N, Lon: 88.71W
Wx Zone: ILZ086
Feedback

Stonefort, IL Regional Weather

Expires:201909172200;;941838
ASUS43 KLOT 172109
RWRIL 

ILLINOIS REGIONAL WEATHER ROUNDUP
NATIONAL WEATHER SERVICE CHICAGO/ROMEOVILLE IL
400 PM CDT TUE SEP 17 2019

NOTE: "FAIR" INDICATES FEW OR NO CLOUDS BELOW 12,000 FEET WITH NO
SIGNIFICANT WEATHER AND/OR OBSTRUCTIONS TO VISIBILITY.

* THESE STATIONS ARE NOT UNDER NWS QUALITY CONTROL. THEY ALSO MAY NOT
  REPORT WEATHER SUCH AS PRECIPITATION OR FOG.


ILZ064>066-069>071-074>076-080>082-084>086-088>090-092>094-172200-
SOUTH-CENTRAL ILLINOIS
  
CITY           SKY/WX    TMP DP  RH WIND       PRES   REMARKS
CARBONDALE     FAIR      93  66  40 NE3       30.01F HX  96           
CAIRO*         FAIR      91  71  52 NE8       29.99F HX  98           
EFFINGHAM*     FAIR      85  59  40 NE3       30.07F HX  85           
MARION         MOSUNNY   91  66  43 E5        30.01F HX  94           
MT. VERNON     FAIR      87  68  52 NE5       30.04F HX  90           
CENTRALIA*     MOSUNNY   88  65  46 E5        30.04S HX  89           
SALEM*         FAIR      87  65  47 NE3       30.05S HX  89           
METROPOLIS*    FAIR      91  68  46 NE3       30.00F HX  94           
$$


SKY/WX - Weather  TMP - Temperature  DP - Dew Point  RH - Relative Humidity
WIND - Wind Direction/Speed PRES - Barometric Pressure VSB - Visibility
WCI - Wind Chill Index E13G22 Wind - East Wind 13 mph/Gusts of 22 mph